| time (UTC) | temp F | wind direction | speed MPH | gust MPH | rain 1hr in | rain 24hr in | rain mn in | humidity % | barometer mb |
| 20260507102013 | 36 | 0 | 0.0 | 0.0 | 0.00 | 0.41 | 0.00 | 91 | 1011.3 |
| 20260507101013 | 36 | 0 | 0.0 | 0.0 | 0.00 | 0.41 | 0.00 | 91 | 1011.2 |
| 20260507100512 | 36 | 0 | 0.0 | 1.0 | 0.00 | 0.41 | 0.00 | 91 | 1011.2 |
| 20260507100031 | 36 | 0 | 0.0 | 1.0 | 0.00 | 0.41 | 0.00 | 91 | 1011.1 |
| 20260507095513 | 37 | 360 | 0.0 | 1.0 | 0.00 | 0.41 | 0.00 | 90 | 1011.1 |
| 20260507095014 | 37 | 0 | 0.0 | 1.0 | 0.00 | 0.41 | 0.00 | 90 | 1011.1 |
| 20260507094533 | 37 | 0 | 0.0 | 1.0 | 0.00 | 0.41 | 0.00 | 90 | 1011.1 |
| 20260507094011 | 37 | 0 | 0.0 | 2.0 | 0.00 | 0.41 | 0.00 | 90 | 1011.1 |
| 20260507093513 | 38 | 0 | 0.0 | 3.0 | 0.00 | 0.41 | 0.00 | 90 | 1011.0 |
| 20260507093031 | 38 | 0 | 0.0 | 3.0 | 0.00 | 0.41 | 0.00 | 90 | 1011.0 |
| 20260507092511 | 38 | 343 | 0.0 | 4.0 | 0.00 | 0.41 | 0.00 | 90 | 1010.9 |
| 20260507092015 | 39 | 0 | 0.0 | 4.0 | 0.00 | 0.41 | 0.00 | 90 | 1010.9 |
| 20260507091011 | 40 | 346 | 2.0 | 6.0 | 0.00 | 0.41 | 0.00 | 90 | 1011.1 |
| 20260507090513 | 40 | 332 | 2.0 | 6.0 | 0.00 | 0.41 | 0.00 | 91 | 1011.1 |
| 20260507090035 | 40 | 315 | 2.0 | 9.0 | 0.00 | 0.41 | 0.00 | 91 | 1011.1 |
| 20260507085513 | 40 | 360 | 2.0 | 9.0 | 0.00 | 0.41 | 0.00 | 91 | 1011.0 |
| 20260507085017 | 40 | 323 | 4.0 | 9.0 | 0.00 | 0.41 | 0.00 | 91 | 1011.0 |
| 20260507084541 | 40 | 329 | 2.0 | 5.0 | 0.00 | 0.41 | 0.00 | 91 | 1011.0 |
| 20260507084010 | 41 | 0 | 0.0 | 6.0 | 0.00 | 0.41 | 0.00 | 91 | 1011.0 |
| 20260507083514 | 41 | 312 | 1.0 | 6.0 | 0.00 | 0.41 | 0.00 | 92 | 1010.9 |
| 20260507083030 | 41 | 0 | 0.0 | 3.0 | 0.00 | 0.41 | 0.00 | 92 | 1011.1 |
| 20260507082513 | 42 | 0 | 1.0 | 6.0 | 0.00 | 0.41 | 0.00 | 92 | 1011.0 |
| 20260507082009 | 42 | 323 | 2.0 | 6.0 | 0.00 | 0.41 | 0.00 | 93 | 1011.1 |
| 20260507081529 | 42 | 317 | 1.0 | 5.0 | 0.00 | 0.41 | 0.00 | 94 | 1011.1 |
| 20260507081015 | 42 | 341 | 2.0 | 7.0 | 0.00 | 0.41 | 0.00 | 94 | 1011.1 |
| 20260507080512 | 42 | 339 | 3.0 | 7.0 | 0.00 | 0.41 | 0.00 | 94 | 1011.2 |
| 20260507080027 | 42 | 0 | 3.0 | 8.0 | 0.00 | 0.41 | 0.00 | 94 | 1011.2 |
| 20260507075511 | 42 | 317 | 3.0 | 9.0 | 0.00 | 0.41 | 0.00 | 95 | 1011.1 |
| 20260507075012 | 42 | 317 | 4.0 | 9.0 | 0.00 | 0.41 | 0.00 | 95 | 1011.1 |
| 20260507074529 | 42 | 331 | 4.0 | 8.0 | 0.00 | 0.41 | 0.00 | 95 | 1011.1 |
| 20260507074010 | 42 | 329 | 4.0 | 9.0 | 0.00 | 0.41 | 0.00 | 95 | 1011.1 |
| 20260507073513 | 42 | 330 | 4.0 | 9.0 | 0.00 | 0.41 | 0.00 | 95 | 1011.3 |
| 20260507073031 | 43 | 325 | 3.0 | 8.0 | 0.00 | 0.41 | 0.00 | 95 | 1011.3 |
| 20260507072511 | 43 | 355 | 2.0 | 5.0 | 0.00 | 0.41 | 0.00 | 96 | 1011.3 |
| 20260507072012 | 43 | 323 | 2.0 | 5.0 | 0.00 | 0.41 | 0.00 | 96 | 1011.4 |
| 20260507071529 | 43 | 337 | 1.0 | 8.0 | 0.00 | 0.41 | 0.00 | 96 | 1011.2 |
| 20260507071012 | 43 | 341 | 2.0 | 8.0 | 0.00 | 0.41 | 0.00 | 96 | 1011.3 |
| 20260507070512 | 43 | 291 | 3.0 | 8.0 | 0.00 | 0.41 | 0.00 | 96 | 1011.3 |
| 20260507070029 | 43 | 285 | 2.0 | 5.0 | 0.00 | 0.41 | 0.00 | 96 | 1011.3 |
| 20260507065511 | 43 | 0 | 1.0 | 4.0 | 0.00 | 0.41 | 0.00 | 96 | 1011.3 |
| 20260507065011 | 43 | 267 | 1.0 | 5.0 | 0.00 | 0.41 | 0.00 | 96 | 1011.3 |
| 20260507064529 | 43 | 286 | 0.0 | 4.0 | 0.00 | 0.41 | 0.00 | 96 | 1011.3 |
| 20260507064011 | 42 | 0 | 0.0 | 4.0 | 0.00 | 0.41 | 0.00 | 96 | 1011.1 |
| 20260507063512 | 43 | 281 | 0.0 | 8.0 | 0.00 | 0.41 | 0.00 | 96 | 1011.0 |
| 20260507063033 | 42 | 321 | 1.0 | 8.0 | 0.00 | 0.41 | 0.00 | 96 | 1010.9 |
| 20260507062512 | 42 | 291 | 1.0 | 8.0 | 0.00 | 0.41 | 0.00 | 96 | 1011.0 |
| 20260507062013 | 42 | 0 | 0.0 | 0.0 | 0.00 | 0.41 | 0.00 | 96 | 1010.9 |
| 20260507061529 | 42 | 0 | 0.0 | 0.0 | 0.00 | 0.41 | 0.00 | 96 | 1011.0 |
| 20260507061013 | 42 | 0 | 0.0 | 2.0 | 0.00 | 0.41 | 0.00 | 96 | 1010.8 |
| 20260507060513 | 42 | 0 | 0.0 | 2.0 | 0.00 | 0.41 | 0.00 | 96 | 1010.7 |
| 20260507060030 | 42 | 0 | 0.0 | 2.0 | 0.00 | 0.41 | 0.00 | 96 | 1010.5 |
| 20260507055513 | 42 | 0 | 0.0 | 2.0 | 0.00 | 0.41 | 0.00 | 96 | 1010.4 |
| 20260507055014 | 42 | 0 | 0.0 | 0.0 | 0.00 | 0.41 | 0.00 | 96 | 1010.6 |
| 20260507054529 | 42 | 0 | 0.0 | 0.0 | 0.00 | 0.41 | 0.00 | 96 | 1010.7 |
| 20260507054015 | 42 | 0 | 0.0 | 0.0 | 0.00 | 0.41 | 0.00 | 96 | 1010.7 |
| 20260507053511 | 42 | 0 | 0.0 | 1.0 | 0.00 | 0.41 | 0.00 | 96 | 1010.7 |
| 20260507053030 | 42 | 0 | 0.0 | 1.0 | 0.00 | 0.41 | 0.00 | 96 | 1010.8 |
| 20260507052509 | 42 | 0 | 0.0 | 0.0 | 0.00 | 0.41 | 0.00 | 96 | 1010.8 |
| 20260507052010 | 42 | 0 | 0.0 | 0.0 | 0.00 | 0.41 | 0.00 | 96 | 1010.7 |
| 20260507051526 | 42 | 0 | 0.0 | 0.0 | 0.00 | 0.41 | 0.00 | 95 | 1010.7 |
| 20260507051010 | 42 | 0 | 0.0 | 0.0 | 0.00 | 0.41 | 0.00 | 95 | 1010.7 |
| 20260507050510 | 42 | 0 | 0.0 | 0.0 | 0.00 | 0.41 | 0.00 | 95 | 1010.8 |
| 20260507050040 | 42 | 0 | 0.0 | 1.0 | 0.00 | 0.41 | 0.00 | 96 | 1010.7 |
| 20260507045513 | 42 | 0 | 0.0 | 1.0 | 0.00 | 0.41 | 0.00 | 95 | 1010.8 |
| 20260507045011 | 42 | 0 | 0.0 | 1.0 | 0.00 | 0.41 | 0.00 | 95 | 1010.9 |
| 20260507044530 | 42 | 0 | 0.0 | 1.0 | 0.00 | 0.41 | 0.00 | 95 | 1010.9 |
| 20260507044010 | 42 | 0 | 0.0 | 1.0 | 0.00 | 0.41 | 0.00 | 95 | 1011.1 |
| 20260507043510 | 42 | 0 | 0.0 | 0.0 | 0.00 | 0.41 | 0.00 | 95 | 1011.1 |
| 20260507043030 | 41 | 0 | 0.0 | 0.0 | 0.00 | 0.41 | 0.00 | 95 | 1011.0 |
| 20260507042513 | 42 | 0 | 0.0 | 0.0 | 0.00 | 0.41 | 0.00 | 95 | 1011.1 |
| 20260507042011 | 41 | 0 | 0.0 | 1.0 | 0.00 | 0.41 | 0.00 | 95 | 1011.0 |
| 20260507041528 | 41 | 0 | 0.0 | 2.0 | 0.00 | 0.41 | 0.00 | 94 | 1011.1 |
| 20260507041010 | 41 | 0 | 0.0 | 2.0 | 0.00 | 0.41 | 0.00 | 94 | 1010.9 |
| 20260507040510 | 41 | 335 | 0.0 | 1.0 | 0.00 | 0.41 | 0.00 | 94 | 1011.1 |
| 20260507040026 | 41 | 0 | 0.0 | 0.0 | 0.00 | 0.41 | 0.00 | 94 | 1010.9 |
| 20260507035510 | 41 | 0 | 0.0 | 0.0 | 0.00 | 0.41 | 0.41 | 94 | 1010.8 |
| 20260507035014 | 41 | 0 | 0.0 | 0.0 | 0.00 | 0.41 | 0.41 | 94 | 1010.9 |
| 20260507034600 | 41 | 0 | 0.0 | 0.0 | 0.00 | 0.41 | 0.41 | 94 | 1010.9 |
| 20260507034012 | 41 | 0 | 0.0 | 3.0 | 0.00 | 0.41 | 0.41 | 93 | 1011.0 |
| 20260507033513 | 41 | 0 | 0.0 | 3.0 | 0.00 | 0.41 | 0.41 | 93 | 1010.9 |
| 20260507033030 | 42 | 0 | 1.0 | 3.0 | 0.00 | 0.41 | 0.41 | 93 | 1010.6 |
| 20260507032513 | 42 | 321 | 1.0 | 2.0 | 0.00 | 0.41 | 0.41 | 93 | 1010.6 |
| 20260507032015 | 42 | 0 | 0.0 | 0.0 | 0.00 | 0.41 | 0.41 | 93 | 1010.6 |
| 20260507031529 | 42 | 0 | 0.0 | 2.0 | 0.00 | 0.41 | 0.41 | 93 | 1010.8 |
| 20260507031011 | 42 | 0 | 0.0 | 2.0 | 0.00 | 0.41 | 0.41 | 92 | 1010.9 |
| 20260507030512 | 43 | 297 | 0.0 | 2.0 | 0.00 | 0.41 | 0.41 | 92 | 1011.0 |
| 20260507030031 | 43 | 0 | 0.0 | 1.0 | 0.00 | 0.41 | 0.41 | 92 | 1010.9 |
| 20260507025510 | 44 | 0 | 0.0 | 2.0 | 0.00 | 0.41 | 0.41 | 92 | 1011.0 |
| 20260507025013 | 44 | 0 | 0.0 | 1.0 | 0.00 | 0.41 | 0.41 | 92 | 1011.1 |
| 20260507024533 | 44 | 0 | 0.0 | 1.0 | 0.00 | 0.41 | 0.41 | 92 | 1011.1 |
| 20260507024014 | 45 | 0 | 0.0 | 0.0 | 0.00 | 0.41 | 0.41 | 92 | 1010.9 |
| 20260507023515 | 45 | 0 | 0.0 | 0.0 | 0.00 | 0.41 | 0.41 | 92 | 1010.9 |
| 20260507023029 | 45 | 0 | 0.0 | 1.0 | 0.00 | 0.41 | 0.41 | 92 | 1010.9 |
| 20260507022512 | 45 | 0 | 0.0 | 3.0 | 0.00 | 0.41 | 0.41 | 92 | 1011.2 |
| 20260507022013 | 45 | 0 | 1.0 | 3.0 | 0.00 | 0.41 | 0.41 | 92 | 1011.6 |
| 20260507021533 | 45 | 0 | 0.0 | 3.0 | 0.00 | 0.41 | 0.41 | 92 | 1011.5 |
| 20260507021013 | 45 | 0 | 0.0 | 3.0 | 0.00 | 0.41 | 0.41 | 92 | 1011.0 |
| 20260507020509 | 45 | 300 | 0.0 | 2.0 | 0.00 | 0.41 | 0.41 | 92 | 1011.3 |
| 20260507020028 | 45 | 0 | 0.0 | 0.0 | 0.00 | 0.41 | 0.41 | 92 | 1011.3 |
| 20260507015512 | 46 | 0 | 0.0 | 0.0 | 0.00 | 0.41 | 0.41 | 92 | 1011.5 |
| 20260507015015 | 46 | 0 | 0.0 | 0.0 | 0.00 | 0.41 | 0.41 | 92 | 1011.6 |
| 20260507014531 | 46 | 0 | 0.0 | 0.0 | 0.00 | 0.41 | 0.41 | 92 | 1011.6 |
| 20260507014012 | 46 | 0 | 0.0 | 0.0 | 0.00 | 0.41 | 0.41 | 91 | 1011.5 |
| 20260507013510 | 46 | 0 | 0.0 | 1.0 | 0.00 | 0.41 | 0.41 | 91 | 1011.4 |
| 20260507013029 | 46 | 0 | 0.0 | 4.0 | 0.00 | 0.41 | 0.41 | 91 | 1011.4 |
| 20260507012012 | 46 | 319 | 1.0 | 4.0 | 0.00 | 0.41 | 0.41 | 91 | 1011.4 |
| 20260507011533 | 46 | 327 | 0.0 | 4.0 | 0.00 | 0.41 | 0.41 | 91 | 1011.3 |
| 20260507011011 | 46 | 0 | 0.0 | 4.0 | 0.00 | 0.41 | 0.41 | 91 | 1011.3 |
| 20260507010513 | 46 | 307 | 2.0 | 4.0 | 0.00 | 0.41 | 0.41 | 91 | 1011.5 |
| 20260507010040 | 46 | 290 | 2.0 | 5.0 | 0.00 | 0.41 | 0.41 | 91 | 1011.5 |
| 20260507005510 | 46 | 288 | 2.0 | 5.0 | 0.00 | 0.41 | 0.41 | 91 | 1011.3 |
| 20260507005010 | 46 | 281 | 2.0 | 5.0 | 0.00 | 0.41 | 0.41 | 91 | 1011.0 |
| 20260507004529 | 46 | 314 | 1.0 | 3.0 | 0.00 | 0.41 | 0.41 | 91 | 1010.9 |
| 20260507004013 | 46 | 282 | 0.0 | 3.0 | 0.00 | 0.41 | 0.41 | 91 | 1010.9 |
| 20260507003511 | 46 | 288 | 0.0 | 6.0 | 0.00 | 0.41 | 0.41 | 91 | 1010.8 |
| 20260507003030 | 46 | 321 | 2.0 | 6.0 | 0.00 | 0.41 | 0.41 | 91 | 1010.7 |
| 20260507002512 | 46 | 323 | 2.0 | 5.0 | 0.00 | 0.41 | 0.41 | 91 | 1010.6 |
| 20260507002013 | 46 | 303 | 1.0 | 5.0 | 0.00 | 0.41 | 0.41 | 91 | 1010.4 |
| 20260507001549 | 46 | 317 | 2.0 | 5.0 | 0.00 | 0.41 | 0.41 | 91 | 1010.3 |
| 20260507001011 | 46 | 5 | 1.0 | 9.0 | 0.00 | 0.41 | 0.41 | 91 | 1010.4 |
| 20260507000512 | 46 | 344 | 3.0 | 9.0 | 0.00 | 0.41 | 0.41 | 91 | 1010.5 |
| 20260507000035 | 46 | 312 | 1.0 | 6.0 | 0.00 | 0.41 | 0.41 | 91 | 1010.6 |
| 20260506235511 | 46 | 31 | 2.0 | 8.0 | 0.00 | 0.41 | 0.41 | 91 | 1010.4 |
| 20260506235010 | 46 | 288 | 3.0 | 8.0 | 0.00 | 0.41 | 0.41 | 92 | 1010.4 |
| 20260506234531 | 46 | 342 | 4.0 | 9.0 | 0.00 | 0.41 | 0.41 | 92 | 1010.1 |
| 20260506234013 | 46 | 355 | 1.0 | 9.0 | 0.00 | 0.41 | 0.41 | 92 | 1010.0 |
| 20260506233511 | 46 | 0 | 2.0 | 8.0 | 0.00 | 0.41 | 0.41 | 92 | 1010.0 |
| 20260506233030 | 46 | 305 | 4.0 | 8.0 | 0.00 | 0.41 | 0.41 | 92 | 1010.1 |
| 20260506232512 | 46 | 349 | 3.0 | 8.0 | 0.00 | 0.41 | 0.41 | 92 | 1009.9 |
| 20260506232010 | 46 | 348 | 3.0 | 10.0 | 0.00 | 0.41 | 0.41 | 92 | 1009.9 |
| 20260506231528 | 47 | 21 | 3.0 | 10.0 | 0.00 | 0.41 | 0.41 | 92 | 1010.0 |
| 20260506231013 | 47 | 320 | 2.0 | 10.0 | 0.00 | 0.41 | 0.41 | 92 | 1010.0 |
| 20260506230512 | 47 | 355 | 4.0 | 10.0 | 0.00 | 0.41 | 0.41 | 92 | 1010.0 |
| 20260506230032 | 47 | 330 | 2.0 | 11.0 | 0.00 | 0.41 | 0.41 | 93 | 1009.9 |
| 20260506225512 | 47 | 336 | 3.0 | 11.0 | 0.00 | 0.41 | 0.41 | 93 | 1009.8 |
| 20260506225012 | 47 | 338 | 5.0 | 10.0 | 0.00 | 0.41 | 0.41 | 93 | 1009.7 |
| 20260506224526 | 47 | 355 | 2.0 | 9.0 | 0.00 | 0.41 | 0.41 | 93 | 1009.5 |
| 20260506224014 | 47 | 301 | 5.0 | 10.0 | 0.01 | 0.41 | 0.41 | 93 | 1009.4 |
| 20260506223512 | 47 | 337 | 3.0 | 10.0 | 0.01 | 0.41 | 0.41 | 93 | 1009.1 |
| 20260506223029 | 47 | 321 | 3.0 | 6.0 | 0.01 | 0.41 | 0.41 | 93 | 1009.1 |
| 20260506222510 | 47 | 360 | 3.0 | 6.0 | 0.01 | 0.41 | 0.41 | 93 | 1009.1 |
| 20260506222013 | 47 | 324 | 2.0 | 6.0 | 0.02 | 0.41 | 0.41 | 93 | 1009.1 |
| 20260506221530 | 48 | 5 | 2.0 | 11.0 | 0.02 | 0.41 | 0.41 | 93 | 1009.0 |
| 20260506221010 | 48 | 5 | 5.0 | 11.0 | 0.02 | 0.41 | 0.41 | 93 | 1008.8 |
| 20260506220510 | 48 | 355 | 2.0 | 10.0 | 0.02 | 0.41 | 0.41 | 93 | 1008.9 |
| 20260506220033 | 48 | 333 | 3.0 | 10.0 | 0.02 | 0.41 | 0.41 | 93 | 1008.8 |
| 20260506215511 | 48 | 346 | 6.0 | 10.0 | 0.02 | 0.41 | 0.41 | 93 | 1008.9 |
| 20260506215011 | 48 | 313 | 4.0 | 9.0 | 0.02 | 0.41 | 0.41 | 93 | 1008.8 |
| 20260506214530 | 48 | 335 | 4.0 | 9.0 | 0.02 | 0.41 | 0.41 | 93 | 1008.5 |
| 20260506214010 | 48 | 320 | 3.0 | 13.0 | 0.01 | 0.40 | 0.40 | 92 | 1008.6 |
| 20260506213514 | 49 | 350 | 5.0 | 13.0 | 0.01 | 0.40 | 0.40 | 92 | 1008.5 |
| 20260506213037 | 49 | 301 | 5.0 | 11.0 | 0.01 | 0.40 | 0.40 | 92 | 1008.5 |
| 20260506212512 | 49 | 325 | 4.0 | 13.0 | 0.01 | 0.40 | 0.40 | 92 | 1008.3 |
| 20260506212010 | 50 | 331 | 7.0 | 13.0 | 0.00 | 0.39 | 0.39 | 92 | 1007.9 |
| 20260506211539 | 50 | 288 | 7.0 | 13.0 | 0.00 | 0.39 | 0.39 | 92 | 1007.9 |
| 20260506211010 | 50 | 306 | 9.0 | 15.0 | 0.00 | 0.39 | 0.39 | 92 | 1007.7 |
| 20260506210512 | 50 | 321 | 7.0 | 15.0 | 0.01 | 0.39 | 0.39 | 92 | 1007.5 |
| 20260506210035 | 51 | 342 | 5.0 | 13.0 | 0.01 | 0.39 | 0.39 | 92 | 1007.5 |
| 20260506205510 | 51 | 334 | 8.0 | 13.0 | 0.01 | 0.39 | 0.39 | 92 | 1007.2 |
| 20260506205014 | 51 | 288 | 8.0 | 11.0 | 0.01 | 0.39 | 0.39 | 92 | 1007.1 |
| 20260506204533 | 52 | 337 | 5.0 | 12.0 | 0.01 | 0.39 | 0.39 | 92 | 1006.9 |
| 20260506204010 | 52 | 325 | 6.0 | 12.0 | 0.01 | 0.39 | 0.39 | 92 | 1006.8 |
| 20260506203512 | 52 | 331 | 5.0 | 14.0 | 0.01 | 0.39 | 0.39 | 91 | 1006.8 |
| 20260506203033 | 53 | 323 | 7.0 | 14.0 | 0.01 | 0.39 | 0.39 | 91 | 1006.7 |
| 20260506202513 | 53 | 326 | 7.0 | 14.0 | 0.01 | 0.39 | 0.39 | 91 | 1006.7 |
| 20260506202015 | 54 | 355 | 5.0 | 18.0 | 0.01 | 0.39 | 0.39 | 91 | 1006.6 |
| 20260506201536 | 55 | 355 | 7.0 | 18.0 | 0.01 | 0.39 | 0.39 | 91 | 1006.5 |
| 20260506201013 | 56 | 302 | 7.0 | 18.0 | 0.01 | 0.39 | 0.39 | 92 | 1006.4 |
| 20260506200510 | 58 | 319 | 7.0 | 15.0 | 0.00 | 0.38 | 0.38 | 93 | 1006.2 |
| 20260506200031 | 59 | 293 | 7.0 | 10.0 | 0.00 | 0.38 | 0.38 | 94 | 1006.1 |
| 20260506195513 | 59 | 0 | 2.0 | 7.0 | 0.00 | 0.38 | 0.38 | 94 | 1005.8 |
| 20260506195016 | 59 | 186 | 3.0 | 9.0 | 0.00 | 0.38 | 0.38 | 94 | 1005.9 |
| 20260506194527 | 59 | 210 | 2.0 | 9.0 | 0.00 | 0.38 | 0.38 | 94 | 1005.9 |
| 20260506194011 | 59 | 194 | 5.0 | 8.0 | 0.00 | 0.38 | 0.38 | 95 | 1006.0 |
| 20260506193512 | 59 | 188 | 4.0 | 7.0 | 0.00 | 0.38 | 0.38 | 95 | 1005.9 |
| 20260506193042 | 59 | 0 | 3.0 | 6.0 | 0.00 | 0.38 | 0.38 | 95 | 1006.0 |
| 20260506192514 | 59 | 197 | 3.0 | 6.0 | 0.00 | 0.38 | 0.38 | 95 | 1005.9 |
| 20260506192010 | 59 | 200 | 3.0 | 8.0 | 0.00 | 0.38 | 0.38 | 95 | 1006.0 |
| 20260506191528 | 59 | 195 | 1.0 | 8.0 | 0.00 | 0.38 | 0.38 | 95 | 1006.1 |
| 20260506191012 | 59 | 213 | 4.0 | 8.0 | 0.00 | 0.38 | 0.38 | 95 | 1006.1 |
| 20260506190513 | 58 | 228 | 4.0 | 9.0 | 0.00 | 0.38 | 0.38 | 95 | 1006.0 |
| 20260506190028 | 58 | 191 | 3.0 | 9.0 | 0.00 | 0.38 | 0.38 | 95 | 1006.1 |
| 20260506185511 | 58 | 217 | 4.0 | 12.0 | 0.00 | 0.38 | 0.38 | 96 | 1006.1 |
| 20260506185011 | 58 | 202 | 5.0 | 12.0 | 0.00 | 0.38 | 0.38 | 96 | 1006.0 |
| 20260506184531 | 58 | 208 | 4.0 | 8.0 | 0.00 | 0.38 | 0.38 | 96 | 1006.2 |
| 20260506184010 | 58 | 200 | 4.0 | 10.0 | 0.00 | 0.38 | 0.38 | 96 | 1006.2 |
| 20260506183513 | 58 | 195 | 4.0 | 10.0 | 0.00 | 0.38 | 0.38 | 96 | 1006.1 |
| 20260506183025 | 58 | 193 | 5.0 | 10.0 | 0.00 | 0.38 | 0.38 | 96 | 1006.3 |
| 20260506182511 | 58 | 175 | 5.0 | 12.0 | 0.00 | 0.38 | 0.38 | 96 | 1006.2 |
| 20260506182014 | 58 | 172 | 4.0 | 12.0 | 0.00 | 0.38 | 0.38 | 96 | 1006.4 |
| 20260506181537 | 58 | 190 | 2.0 | 16.0 | 0.00 | 0.38 | 0.38 | 96 | 1006.4 |
| 20260506181013 | 58 | 213 | 5.0 | 16.0 | 0.00 | 0.38 | 0.38 | 96 | 1006.4 |
| 20260506180516 | 58 | 178 | 6.0 | 13.0 | 0.00 | 0.38 | 0.38 | 96 | 1006.5 |
| 20260506180030 | 58 | 163 | 3.0 | 9.0 | 0.00 | 0.38 | 0.38 | 96 | 1006.4 |
| 20260506175514 | 58 | 196 | 4.0 | 9.0 | 0.01 | 0.38 | 0.38 | 96 | 1006.5 |
| 20260506175011 | 58 | 223 | 2.0 | 7.0 | 0.01 | 0.38 | 0.38 | 96 | 1006.4 |
| 20260506174534 | 58 | 163 | 3.0 | 8.0 | 0.01 | 0.38 | 0.38 | 96 | 1006.4 |
| 20260506174014 | 58 | 186 | 3.0 | 8.0 | 0.01 | 0.38 | 0.38 | 96 | 1006.4 |
| 20260506173514 | 58 | 184 | 3.0 | 7.0 | 0.01 | 0.38 | 0.38 | 96 | 1006.4 |
| 20260506173047 | 58 | 202 | 4.0 | 7.0 | 0.01 | 0.38 | 0.38 | 96 | 1006.4 |
| 20260506172511 | 58 | 196 | 2.0 | 6.0 | 0.01 | 0.38 | 0.38 | 96 | 1006.5 |
| 20260506172011 | 58 | 193 | 2.0 | 9.0 | 0.01 | 0.38 | 0.38 | 96 | 1006.5 |
| 20260506171538 | 58 | 183 | 3.0 | 9.0 | 0.01 | 0.38 | 0.38 | 96 | 1006.6 |
| 20260506171012 | 58 | 188 | 3.0 | 8.0 | 0.01 | 0.38 | 0.38 | 96 | 1006.5 |
| 20260506170514 | 58 | 229 | 4.0 | 9.0 | 0.02 | 0.38 | 0.38 | 96 | 1006.7 |
| 20260506170044 | 58 | 200 | 3.0 | 9.0 | 0.02 | 0.38 | 0.38 | 96 | 1006.7 |
| 20260506165515 | 58 | 196 | 4.0 | 11.0 | 0.02 | 0.37 | 0.37 | 96 | 1006.7 |
| 20260506165012 | 57 | 199 | 4.0 | 11.0 | 0.03 | 0.37 | 0.37 | 96 | 1006.8 |
| 20260506164528 | 57 | 208 | 5.0 | 10.0 | 0.04 | 0.37 | 0.37 | 96 | 1006.8 |
| 20260506164015 | 57 | 237 | 5.0 | 12.0 | 0.04 | 0.37 | 0.37 | 96 | 1006.8 |
| 20260506163512 | 57 | 231 | 5.0 | 12.0 | 0.05 | 0.37 | 0.37 | 96 | 1006.8 |
| 20260506163032 | 57 | 184 | 4.0 | 8.0 | 0.06 | 0.37 | 0.37 | 96 | 1006.9 |
| 20260506162512 | 57 | 179 | 4.0 | 8.0 | 0.07 | 0.37 | 0.37 | 96 | 1006.9 |
| 20260506162015 | 57 | 190 | 3.0 | 8.0 | 0.08 | 0.37 | 0.37 | 96 | 1006.8 |
| 20260506161530 | 57 | 187 | 3.0 | 7.0 | 0.08 | 0.37 | 0.37 | 96 | 1006.8 |
| 20260506161016 | 57 | 187 | 2.0 | 6.0 | 0.09 | 0.37 | 0.37 | 96 | 1006.8 |
| 20260506160510 | 57 | 196 | 3.0 | 10.0 | 0.08 | 0.36 | 0.36 | 96 | 1006.9 |
| 20260506160027 | 57 | 219 | 3.0 | 10.0 | 0.09 | 0.36 | 0.36 | 96 | 1006.9 |
| 20260506155511 | 57 | 207 | 3.0 | 9.0 | 0.08 | 0.35 | 0.35 | 96 | 1006.8 |
| 20260506155010 | 57 | 172 | 4.0 | 8.0 | 0.07 | 0.34 | 0.34 | 96 | 1007.0 |
| 20260506154528 | 57 | 199 | 3.0 | 7.0 | 0.06 | 0.33 | 0.33 | 96 | 1007.0 |
| 20260506154012 | 57 | 188 | 4.0 | 8.0 | 0.05 | 0.32 | 0.32 | 96 | 1006.9 |
| 20260506153511 | 57 | 185 | 4.0 | 9.0 | 0.05 | 0.32 | 0.32 | 96 | 1006.9 |
| 20260506153027 | 57 | 173 | 3.0 | 10.0 | 0.05 | 0.31 | 0.31 | 96 | 1007.0 |
| 20260506152511 | 57 | 155 | 3.0 | 10.0 | 0.04 | 0.30 | 0.30 | 96 | 1007.0 |
| 20260506152013 | 57 | 194 | 4.0 | 10.0 | 0.03 | 0.29 | 0.29 | 96 | 1007.0 |
| 20260506151528 | 57 | 213 | 5.0 | 10.0 | 0.04 | 0.29 | 0.29 | 96 | 1007.0 |
| 20260506151013 | 57 | 198 | 4.0 | 10.0 | 0.04 | 0.28 | 0.28 | 96 | 1006.9 |
| 20260506150511 | 57 | 194 | 5.0 | 8.0 | 0.04 | 0.28 | 0.28 | 96 | 1006.9 |
| 20260506150029 | 57 | 204 | 4.0 | 9.0 | 0.04 | 0.27 | 0.27 | 97 | 1006.8 |
| 20260506145514 | 57 | 173 | 4.0 | 11.0 | 0.05 | 0.27 | 0.27 | 97 | 1006.8 |
| 20260506145013 | 56 | 193 | 5.0 | 12.0 | 0.06 | 0.27 | 0.27 | 97 | 1006.7 |
| 20260506144527 | 56 | 197 | 5.0 | 12.0 | 0.07 | 0.27 | 0.27 | 97 | 1006.8 |
| 20260506144012 | 56 | 189 | 4.0 | 10.0 | 0.08 | 0.27 | 0.27 | 97 | 1006.8 |
| 20260506143510 | 56 | 214 | 5.0 | 10.0 | 0.09 | 0.27 | 0.27 | 97 | 1006.7 |
| 20260506143029 | 56 | 184 | 4.0 | 7.0 | 0.09 | 0.26 | 0.26 | 97 | 1006.8 |
| 20260506142511 | 56 | 199 | 1.0 | 4.0 | 0.10 | 0.26 | 0.26 | 97 | 1006.8 |
| 20260506142013 | 55 | 0 | 0.0 | 3.0 | 0.11 | 0.26 | 0.26 | 97 | 1006.7 |
| 20260506141531 | 55 | 131 | 1.0 | 3.0 | 0.11 | 0.25 | 0.25 | 96 | 1006.6 |
| 20260506141011 | 55 | 0 | 0.0 | 1.0 | 0.12 | 0.24 | 0.24 | 97 | 1006.7 |
| 20260506140511 | 55 | 0 | 0.0 | 0.0 | 0.13 | 0.24 | 0.24 | 96 | 1006.8 |
| 20260506140033 | 55 | 0 | 0.0 | 2.0 | 0.13 | 0.23 | 0.23 | 96 | 1007.1 |
| 20260506135513 | 55 | 0 | 0.0 | 2.0 | 0.13 | 0.22 | 0.22 | 96 | 1007.3 |
| 20260506135012 | 54 | 0 | 0.0 | 1.0 | 0.13 | 0.21 | 0.21 | 96 | 1007.3 |
| 20260506134528 | 54 | 0 | 0.0 | 1.0 | 0.13 | 0.20 | 0.20 | 96 | 1007.4 |
| 20260506134014 | 54 | 0 | 0.0 | 1.0 | 0.12 | 0.19 | 0.19 | 96 | 1007.5 |
| 20260506133515 | 54 | 0 | 0.0 | 0.0 | 0.12 | 0.18 | 0.18 | 96 | 1007.6 |
| 20260506133035 | 54 | 0 | 0.0 | 0.0 | 0.11 | 0.17 | 0.17 | 96 | 1007.8 |
| 20260506132509 | 55 | 0 | 0.0 | 0.0 | 0.10 | 0.16 | 0.16 | 96 | 1007.9 |
| 20260506132014 | 54 | 0 | 0.0 | 0.0 | 0.08 | 0.14 | 0.14 | 96 | 1008.0 |
| 20260506131528 | 55 | 0 | 0.0 | 0.0 | 0.08 | 0.13 | 0.13 | 96 | 1007.9 |
| 20260506131013 | 55 | 0 | 0.0 | 1.0 | 0.07 | 0.12 | 0.12 | 96 | 1008.0 |
| 20260506130513 | 55 | 0 | 0.0 | 1.0 | 0.06 | 0.11 | 0.11 | 96 | 1008.1 |
| 20260506130030 | 55 | 0 | 0.0 | 1.0 | 0.06 | 0.10 | 0.10 | 96 | 1008.0 |
| 20260506125511 | 55 | 0 | 0.0 | 0.0 | 0.05 | 0.09 | 0.09 | 96 | 1008.1 |
| 20260506125009 | 55 | 0 | 0.0 | 0.0 | 0.04 | 0.08 | 0.08 | 96 | 1007.9 |
| 20260506124529 | 55 | 0 | 0.0 | 0.0 | 0.03 | 0.07 | 0.07 | 96 | 1007.9 |
| 20260506124012 | 55 | 0 | 0.0 | 0.0 | 0.03 | 0.07 | 0.07 | 96 | 1007.7 |
| 20260506123512 | 54 | 0 | 0.0 | 0.0 | 0.03 | 0.06 | 0.06 | 95 | 1007.5 |
| 20260506123030 | 54 | 0 | 0.0 | 0.0 | 0.03 | 0.06 | 0.06 | 95 | 1007.4 |
| 20260506122513 | 54 | 0 | 0.0 | 0.0 | 0.03 | 0.06 | 0.06 | 95 | 1007.3 |
| 20260506122014 | 55 | 0 | 0.0 | 0.0 | 0.04 | 0.06 | 0.06 | 95 | 1007.4 |
| 20260506121527 | 54 | 0 | 0.0 | 0.0 | 0.03 | 0.05 | 0.05 | 95 | 1007.5 |
| 20260506121011 | 54 | 0 | 0.0 | 0.0 | 0.04 | 0.05 | 0.05 | 95 | 1007.5 |
| 20260506120511 | 55 | 0 | 0.0 | 0.0 | 0.05 | 0.05 | 0.05 | 94 | 1007.5 |
| 20260506120026 | 54 | 0 | 0.0 | 0.0 | 0.04 | 0.04 | 0.04 | 94 | 1007.6 |
| 20260506115511 | 54 | 0 | 0.0 | 0.0 | 0.04 | 0.04 | 0.04 | 94 | 1007.7 |
| 20260506115011 | 54 | 0 | 0.0 | 0.0 | 0.04 | 0.04 | 0.04 | 94 | 1007.5 |
| 20260506114529 | 54 | 0 | 0.0 | 0.0 | 0.04 | 0.04 | 0.04 | 93 | 1007.6 |
| 20260506114009 | 55 | 0 | 0.0 | 0.0 | 0.04 | 0.04 | 0.04 | 93 | 1007.5 |
| 20260506113510 | 55 | 0 | 0.0 | 0.0 | 0.03 | 0.03 | 0.03 | 92 | 1007.6 |
| 20260506113028 | 55 | 0 | 0.0 | 2.0 | 0.03 | 0.03 | 0.03 | 92 | 1007.6 |
| 20260506112513 | 55 | 0 | 0.0 | 2.0 | 0.02 | 0.02 | 0.02 | 91 | 1007.6 |
| 20260506112012 | 55 | 13 | 1.0 | 2.0 | 0.02 | 0.02 | 0.02 | 90 | 1007.4 |
| 20260506111528 | 56 | 0 | 0.0 | 3.0 | 0.02 | 0.02 | 0.02 | 88 | 1007.5 |
| 20260506111011 | 56 | 0 | 0.0 | 3.0 | 0.01 | 0.01 | 0.01 | 87 | 1007.5 |
| 20260506110514 | 56 | 13 | 1.0 | 3.0 | 0.00 | 0.00 | 0.00 | 87 | 1007.6 |
| 20260506110030 | 56 | 0 | 0.0 | 2.0 | 0.00 | 0.00 | 0.00 | 87 | 1007.6 |
| 20260506105512 | 56 | 0 | 0.0 | 3.0 | 0.00 | 0.00 | 0.00 | 86 | 1007.7 |
| 20260506105012 | 56 | 13 | 1.0 | 3.0 | 0.00 | 0.00 | 0.00 | 85 | 1007.5 |
| 20260506104554 | 56 | 13 | 2.0 | 3.0 | 0.00 | 0.00 | 0.00 | 87 | 1007.4 |
| 20260506104011 | 55 | 17 | 1.0 | 4.0 | 0.00 | 0.00 | 0.00 | 88 | 1007.4 |
| 20260506103511 | 55 | 38 | 2.0 | 4.0 | 0.00 | 0.00 | 0.00 | 89 | 1007.1 |
| 20260506103029 | 55 | 59 | 2.0 | 3.0 | 0.00 | 0.00 | 0.00 | 89 | 1007.1 |
| 20260506102511 | 55 | 59 | 1.0 | 3.0 | 0.00 | 0.00 | 0.00 | 89 | 1007.0 |